Location: Frydek-Mistek
(49.6830°N, 18.3330°E)
Time: 10:35:33
(UTC+01:00)

Courier 1B Rocket - All Passes

Search period start: 19 February 2018 00:00
Search period end: 01 March 2018 00:00
Orbit: 920 x 1202 km, 28.2° (Epoch: 18 February)

Date Brightness Start Highest point End Pass type
(mag) Time Alt. Az. Time Alt. Az. Time Alt. Az.
19 Feb - 13:34:02 10° SSW 13:36:10 11° S 13:38:21 10° SSE daylight
20 Feb - 12:33:44 10° SSW 12:35:33 11° S 12:37:25 10° SSE daylight
21 Feb - 11:34:33 10° S 11:34:59 10° S 11:35:25 10° SSE daylight
21 Feb - 13:26:37 10° S 13:26:57 10° S 13:27:15 10° S daylight
22 Feb - 12:25:13 10° SSW 12:26:21 10° S 12:27:29 10° S daylight
23 Feb - 11:25:07 10° S 11:25:47 10° S 11:26:27 10° S daylight
